8,
Avoca, PA
on Wednesday, February 20, 2013

Wednesday
Previous Day Next Day
Daily Summary
 ActualAverageRecord
Temperature
Mean Temperature °F 30°F  
Max Temperature 31°F 38°F 65°F (1930)
Min Temperature 21°F 22°F -2°F (1978)
Degree Days
Heating Degree Days 39 35  
Month to date heating degree days 755 741  
Since 1 July heating degree days 3972 4332  
Cooling Degree Days 0 0  
Month to date cooling degree days 0 0  
Year to date cooling degree days 0 0  
Moisture
Dew Point 12°F   
Average Humidity 55    
Maximum Humidity 63    
Minimum Humidity 46    
Precipitation
Precipitation T in 0.07 in 1.46 in (1921)
Month to date precipitation 0.69 1.47  
Year to date precipitation 2.71 3.84  
Wind
Wind Speed 14 mph   
Max Wind Speed 25 mph   
Max Gust Speed 31 mph   
Visibility 8 miles   
Events Snow   

Key: T is trace of precipitation, MM is missing value
Source: NWS Daily Summary
Time(EST)TemperatureDew PointHumidity Pressure Visibility Wind DirectionWind SpeedGust SpeedPrecipitationEvents Conditions
12:54 AM 28.9°F 18.0°F 64% 29.75 in 10.0 miles West 19.6 mph 27.6 mph N/A   Partly Cloudy
1:54 AM 27.0°F 15.1°F 61% 29.77 in 10.0 miles West 17.3 mph 25.3 mph N/A   Clear
2:54 AM 26.1°F 12.0°F 55% 29.78 in 10.0 miles West 16.1 mph 25.3 mph N/A   Mostly Cloudy
3:54 AM 26.1°F 15.1°F 63% 29.78 in 10.0 miles West 9.2 mph - N/A   Overcast
4:52 AM 24.8°F 17.6°F 74% 29.78 in 7.0 miles West 13.8 mph 19.6 mph 0.00 in Snow Light Snow
4:54 AM 25.0°F 17.1°F 72% 29.80 in 7.0 miles West 12.7 mph - 0.00 in Snow Light Snow
5:11 AM 24.8°F 10.4°F 54% 29.79 in 10.0 miles West 18.4 mph 25.3 mph 0.00 in   Mostly Cloudy
5:54 AM 23.0°F 9.0°F 55% 29.84 in 10.0 miles West 15.0 mph 23.0 mph 0.00 in   Overcast
6:54 AM 21.9°F 8.1°F 55% 29.86 in 10.0 miles West 12.7 mph - N/A   Scattered Clouds
7:54 AM 23.0°F 10.9°F 60% 29.87 in 10.0 miles West 12.7 mph - N/A   Overcast
8:54 AM 24.1°F 12.0°F 60% 29.87 in 10.0 miles West 16.1 mph - N/A   Scattered Clouds
9:54 AM 25.0°F 10.9°F 55% 29.87 in 10.0 miles WSW 15.0 mph 21.9 mph N/A   Mostly Cloudy
10:54 AM 26.1°F 8.1°F 47% 29.86 in 10.0 miles West 19.6 mph 31.1 mph N/A   Overcast
11:54 AM 24.1°F 9.0°F 53% 29.88 in 10.0 miles West 19.6 mph 29.9 mph N/A   Overcast
12:54 PM 24.1°F 14.0°F 65% 29.87 in 8.0 miles WSW 18.4 mph 25.3 mph N/A   Overcast
1:54 PM 24.1°F 14.0°F 65% 29.88 in 10.0 miles WSW 13.8 mph 21.9 mph 0.00 in   Overcast
2:54 PM 25.0°F 10.9°F 55% 29.89 in 10.0 miles WSW 15.0 mph 21.9 mph N/A   Overcast
3:54 PM 25.0°F 10.0°F 53% 29.92 in 10.0 miles West 12.7 mph 21.9 mph N/A   Overcast
4:21 PM 24.8°F 14.0°F 64% 29.89 in 1.8 miles West 16.1 mph 25.3 mph 0.00 in Snow Light Snow
4:34 PM 21.2°F 15.8°F 80% 29.90 in 1.0 miles West 12.7 mph - 0.00 in Snow Light Snow
4:54 PM 21.9°F 17.1°F 82% 29.95 in 0.8 miles WNW 9.2 mph 18.4 mph 0.00 in Snow Light Snow
5:06 PM 21.2°F 17.6°F 86% 29.91 in 2.0 miles West 11.5 mph - 0.00 in Snow Light Snow
5:18 PM 21.2°F 17.6°F 86% 29.92 in 1.8 miles West 9.2 mph 19.6 mph 0.00 in Snow Light Snow
5:23 PM 21.2°F 15.8°F 80% 29.92 in 3.0 miles West 12.7 mph 18.4 mph 0.00 in Snow Light Snow
5:54 PM 23.0°F 10.0°F 58% 29.97 in 10.0 miles West 19.6 mph 26.5 mph 0.00 in   Overcast
6:54 PM 21.9°F 8.1°F 55% 30.01 in 10.0 miles West 15.0 mph 24.2 mph N/A   Overcast
7:54 PM 21.9°F 8.1°F 55% 30.01 in 10.0 miles West 17.3 mph 25.3 mph N/A   Overcast
8:54 PM 21.0°F 8.1°F 57% 30.01 in 10.0 miles West 12.7 mph - N/A   Overcast
9:54 PM 21.0°F 8.1°F 57% 30.02 in 10.0 miles West 12.7 mph - N/A   Overcast
11:54 PM 21.0°F 9.0°F 60% 30.01 in 10.0 miles WNW 12.7 mph - N/A   Overcast
Astronomy
Sunrise:06:50 AM (EST) Moon Rise:01:00 PM (EST)2/20
Sunset:05:43 PM (EST) Moon Set:03:10 AM (EST)2/20
Moon Phase
Feb. 20 Feb. 25 Mar. 04 Mar. 11 Mar. 19

Copyright © 2014 The Weather Underground, Inc.
8,